Location: Alma
(38.7220°N, 88.9090°W)
Time: 20:20:41
(UTC-06:00)

Vanguard 2 - Pass Details

Date: 13 November 2019
Orbit: 553 x 2938 km, 32.9° (Epoch: 12 December)

Event Time Altitude Azimuth Distance (km) Brightness Sun altitude
Rises 08:50:17 0° 221° (SW) 4,803 11.7 20.8°
Reaches altitude 10° 08:54:50 10° 208° (SSW) 3,349 11.1 21.4°
Maximum altitude 09:00:31 22° 162° (SSE) 2,045 11.3 22.1°
Drops below altitude 10° 09:04:41 10° 113° (ESE) 2,364 11.3 22.6°
Sets 09:07:15 0° 97° (E) 3,075 11.3 23.0°
